Location: Yellowknife
(62.4500°N, 114.3500°W)
Time: 14:14:46
(UTC-07:00)

Amateur Radio Satellites - All Passes

Search period start: 09 December 2016 13:44
Search period end: 10 December 2016 13:44
Location: Yellowknife, 62.4500°N, 114.3500°W

Satellite Date Start Highest point End Downlink Frequencies (MHz)
Time Altitude Azimuth
ITAMSAT 1 09 Dec 13:47:50 13:52:59 63° 63° (ENE) 13:58:09 435.822/435.867
HORYU 2 09 Dec 13:51:50 13:53:47 13° 32° (NNE) 13:55:44 437.375
HO-68 09 Dec 13:59:31 14:04:31 21° 357° (N) 14:09:31 435.675
GONETS M04 09 Dec 14:00:15 14:07:22 30° 286° (WNW) 14:14:31
DOVE 4 09 Dec 14:03:00 14:04:16 11° 18° (NNE) 14:05:32 437.250
AISAT 09 Dec 14:04:07 14:08:28 50° 299° (WNW) 14:12:49 437.250
Cosmos 2491 09 Dec 14:08:24 14:15:04 23° 19° (NNE) 14:21:42 435.465 / 435.565
GOMX 1 09 Dec 14:10:09 14:12:47 14° 29° (NNE) 14:15:30 467.674
CUTE-I 09 Dec 14:14:13 14:16:57 14° 23° (NNE) 14:19:42 437.470
ESTCUBE 1 09 Dec 14:14:28 14:18:20 28° 308° (NW) 14:22:12 437.505/2401.250
TISAT 1 09 Dec 14:16:47 14:20:58 51° 101° (ESE) 14:25:05 437.305
CUBEBUG 1 09 Dec 14:20:00 14:24:00 33° 305° (NW) 14:27:58 437.445
50 SAT 09 Dec 14:22:34 14:25:47 32° 301° (WNW) 14:29:00 437.505
NOAA 15 09 Dec 14:23:48 14:26:45 15° 27° (NNE) 14:29:42 137.62
SWISSCUBE 09 Dec 14:25:41 14:29:32 24° 89° (E) 14:33:22 437.505
BEESAT 09 Dec 14:29:18 14:33:08 23° 89° (E) 14:36:56 436.000
AUBIESAT-1 09 Dec 14:38:25 14:41:26 17° 91° (E) 14:44:22 437.475
UKube-1 09 Dec 14:40:17 14:44:32 52° 298° (WNW) 14:48:46 .
AIST 2 09 Dec 14:40:20 14:44:31 64° 215° (SW) 14:48:43 435.215
Cubesat XI-IV 09 Dec 14:40:30 14:43:49 17° 30° (NNE) 14:47:09 437.490
VELOX 1 09 Dec 14:40:59 14:44:57 32° 306° (NW) 14:48:56 145.980
DX 1 09 Dec 14:41:01 14:45:12 44° 301° (WNW) 14:49:24 434.975-435.025
SPROUT 09 Dec 14:44:56 14:48:51 34° 303° (WNW) 14:52:44 437.525
Cosmos 2499 09 Dec 14:48:20 14:53:27 17° 300° (WNW) 14:58:25 435.465 / 435.565
BRITE-PL 09 Dec 14:52:00 14:55:55 26° 47° (NE) 15:00:06 437.365/2234.400
Oscar 19 09 Dec 14:53:38 14:56:48 16° 279° (W) 14:59:58 437.125/150
M-CUBED/EXP-1 PRIME 09 Dec 14:53:38 14:57:29 24° 97° (E) 15:01:15 437.505
NOAA 18 09 Dec 14:55:18 14:58:55 18° 28° (NNE) 15:02:32 137.9125
ITUPSAT 1 09 Dec 14:59:25 15:03:49 35° 95° (E) 15:08:11 437.325
MOZHAYETS 4 09 Dec 15:01:01 15:03:51 16° 83° (E) 15:06:39
PCSat 09 Dec 15:04:39 15:10:01 56° 348° (NNW) 15:15:24 145.827
RS-15 09 Dec 15:14:40 15:26:56 71° 223° (SW) 15:39:01 29.354- 29.394
Gurwin Techsat 1B 09 Dec 15:20:47 15:24:21 18° 278° (W) 15:27:56 435.225
HORYU 2 09 Dec 15:25:15 15:29:16 33° 54° (NE) 15:33:17 437.375
O/OREOS (USA 219) 09 Dec 15:25:34 15:28:46 19° 105° (ESE) 15:31:58 437.305
ITAMSAT 1 09 Dec 15:27:59 15:32:48 37° 265° (W) 15:37:38 435.822/435.867
AO-7 09 Dec 15:32:13 15:40:22 55° 257° (WSW) 15:48:35 29.400- 29.500
DOVE 4 09 Dec 15:36:28 15:40:18 21° 41° (NE) 15:44:12 437.250
AISAT 09 Dec 15:41:17 15:44:08 17° 320° (NW) 15:46:57 437.250
HO-68 09 Dec 15:44:39 15:50:15 25° 23° (NNE) 15:55:52 435.675
GOMX 1 09 Dec 15:45:06 15:49:32 33° 52° (NE) 15:54:13 467.674
LilacSat-2 09 Dec 15:48:27 15:51:06 18° 49° (NE) 15:53:46 437.200
CUTE-I 09 Dec 15:51:02 15:55:38 30° 47° (NE) 16:00:15 437.470
ESTCUBE 1 09 Dec 15:52:33 15:53:56 11° 331° (NNW) 15:55:19 437.505/2401.250
TISAT 1 09 Dec 15:52:37 15:56:32 36° 303° (WNW) 16:00:25 437.305
CUBEBUG 1 09 Dec 15:57:22 15:59:11 12° 327° (NNW) 16:00:59 437.445
NOAA 15 09 Dec 16:00:37 16:05:18 34° 50° (NE) 16:10:01 137.62
SWISSCUBE 09 Dec 16:03:08 16:07:56 86° 295° (WNW) 16:12:43 437.505
Cosmos 2491 09 Dec 16:06:38 16:14:51 42° 50° (NE) 16:23:00 435.465 / 435.565
BEESAT 09 Dec 16:06:44 16:11:33 88° 292° (WNW) 16:16:20 436.000
AUBIESAT-1 09 Dec 16:12:01 16:16:41 66° 113° (ESE) 16:21:10 437.475
UKube-1 09 Dec 16:17:02 16:19:48 17° 320° (NW) 16:22:34 .
Cubesat XI-IV 09 Dec 16:17:46 16:22:44 39° 53° (NE) 16:27:42 437.490
DX 1 09 Dec 16:17:59 16:20:31 15° 323° (NW) 16:23:03 434.975-435.025
VELOX 1 09 Dec 16:18:30 16:20:18 12° 329° (NNW) 16:22:07 145.980
AIST 2 09 Dec 16:19:15 16:22:25 21° 236° (SW) 16:25:35 435.215
SPROUT 09 Dec 16:22:00 16:23:44 12° 326° (NW) 16:25:28 437.525
CINEMA 3 09 Dec 16:26:23 16:29:48 19° 40° (NE) 16:33:12 145.822/145.860
M-CUBED/EXP-1 PRIME 09 Dec 16:27:45 16:32:31 89° 299° (WNW) 16:37:09 437.505
BRITE-PL 09 Dec 16:29:14 16:33:52 87° 75° (ENE) 16:38:57 437.365/2234.400
NOAA 18 09 Dec 16:33:16 16:38:24 40° 51° (NE) 16:43:33 137.9125
STARS 09 Dec 16:33:33 16:36:59 21° 89° (E) 16:40:24 437.465
ITUPSAT 1 09 Dec 16:37:15 16:41:57 59° 297° (WNW) 16:46:38 437.325
MOZHAYETS 4 09 Dec 16:37:20 16:41:54 67° 104° (ESE) 16:46:27
KKS-1 09 Dec 16:38:29 16:42:41 37° 97° (E) 16:46:50 437.445
PCSat 09 Dec 16:48:43 16:54:06 58° 13° (NNE) 16:59:30 145.827
CUBESAT XI-V 09 Dec 16:50:52 16:54:45 25° 90° (E) 16:58:39 437.345
YUBILEINY 09 Dec 16:51:12 16:56:32 18° 61° (ENE) 17:01:53 435.215
UWE-3 09 Dec 16:54:39 16:55:18 10° 29° (NNE) 16:55:58 435.000/436.395/437.385
HORYU 2 09 Dec 17:01:12 17:05:39 63° 255° (WSW) 17:10:07 437.375
CUTE 1.7 + AOD 2 09 Dec 17:01:42 17:04:24 17° 44° (NE) 17:07:05 437.475
O/OREOS (USA 219) 09 Dec 17:03:00 17:07:32 74° 127° (SE) 17:12:04 437.305
AAUSAT CUBESAT 2 09 Dec 17:07:34 17:08:44 11° 35° (NE) 17:09:55 437.432
DOVE 4 09 Dec 17:12:07 17:17:08 59° 64° (ENE) 17:22:21 437.250
CANX-2 09 Dec 17:19:49 17:23:03 22° 49° (NE) 17:26:18 2200.000
LilacSat-2 09 Dec 17:21:03 17:24:54 75° 70° (ENE) 17:28:44 437.200
GOMX 1 09 Dec 17:22:20 17:27:16 77° 254° (WSW) 17:32:34 467.674
Cosmos 2504 09 Dec 17:23:05 17:27:44 16° 57° (ENE) 17:32:24 435.465 / 435.565
ZACube-1 09 Dec 17:25:50 17:27:01 11° 32° (NNE) 17:28:11 437.345
RS-15 09 Dec 17:27:11 17:37:39 35° 251° (WSW) 17:47:58 29.354- 29.394
TISAT 1 09 Dec 17:29:20 17:31:11 13° 325° (NW) 17:33:02 437.305
AO-7 09 Dec 17:29:34 17:35:15 20° 282° (WNW) 17:40:59 29.400- 29.500
CUTE-I 09 Dec 17:29:51 17:35:15 89° 67° (ENE) 17:40:40 437.470
HO-68 09 Dec 17:29:51 17:36:39 48° 48° (NE) 17:43:30 435.675
FUNcube-1 09 Dec 17:31:03 17:32:18 11° 33° (NNE) 17:33:31 145.935
SEEDS 09 Dec 17:36:50 17:39:56 21° 48° (NE) 17:43:03 437.485
NOAA 15 09 Dec 17:39:33 17:44:48 76° 252° (WSW) 17:50:06 137.62
COMPASS 1 09 Dec 17:39:52 17:42:38 18° 45° (NE) 17:45:25 437.405
SWISSCUBE 09 Dec 17:41:22 17:45:17 26° 313° (NW) 17:49:11 437.505
BEESAT 09 Dec 17:44:56 17:48:53 26° 313° (NW) 17:52:49 436.000
AUBIESAT-1 09 Dec 17:46:38 17:50:54 37° 314° (NW) 17:55:05 437.475
CUBEBUG 2 09 Dec 17:53:13 17:56:51 23° 48° (NE) 18:00:25 437.445
Oscar 11 09 Dec 17:55:11 17:57:20 14° 37° (NE) 17:59:28 145.826/435.025
Cubesat XI-IV 09 Dec 17:57:18 18:02:40 66° 255° (WSW) 18:08:03 437.490
CINEMA 3 09 Dec 18:01:11 18:06:04 52° 62° (ENE) 18:10:56 145.822/145.860
M-CUBED/EXP-1 PRIME 09 Dec 18:02:29 18:06:34 30° 319° (NW) 18:10:35 437.505
Cosmos 2491 09 Dec 18:03:56 18:12:43 85° 258° (WSW) 18:21:27 435.465 / 435.565
BRITE-PL 09 Dec 18:09:23 18:13:07 23° 275° (W) 18:17:05 437.365/2234.400
STARS 09 Dec 18:09:28 18:13:57 88° 294° (WNW) 18:18:24 437.465
NOAA 18 09 Dec 18:13:20 18:18:54 69° 254° (WSW) 18:24:29 137.9125
MOZHAYETS 4 09 Dec 18:14:48 18:18:52 32° 306° (NW) 18:22:55
KKS-1 09 Dec 18:15:03 18:19:27 52° 298° (WNW) 18:23:49 437.445
ITUPSAT 1 09 Dec 18:15:38 18:19:03 20° 319° (NW) 18:22:28 437.325
CUSAT 1 09 Dec 18:21:51 18:24:27 21° 57° (ENE) 18:27:32 437.405
UWE-3 09 Dec 18:26:44 18:30:31 26° 51° (NE) 18:34:15 435.000/436.395/437.385
CUBESAT XI-V 09 Dec 18:27:59 18:32:40 79° 291° (WNW) 18:37:20 437.345
ISS 09 Dec 18:31:25 18:33:04 13° 178° (S) 18:34:45 145.825
PCSat 09 Dec 18:32:23 18:37:51 81° 218° (SW) 18:43:18 145.827
CUTE 1.7 + AOD 2 09 Dec 18:35:24 18:39:32 57° 65° (ENE) 18:43:41 437.475
AAUSAT CUBESAT 2 09 Dec 18:39:29 18:43:10 32° 57° (ENE) 18:46:52 437.432
HORYU 2 09 Dec 18:40:34 18:43:07 15° 277° (W) 18:45:41 437.375
YUBILEINY 09 Dec 18:42:58 18:51:14 50° 87° (E) 18:59:34 435.215
O/OREOS (USA 219) 09 Dec 18:43:01 18:47:19 39° 330° (NNW) 18:51:35 437.305
DOVE 4 09 Dec 18:50:20 18:55:05 39° 266° (W) 19:00:03 437.250
STRAND 1 09 Dec 18:51:47 18:55:30 20° 85° (E) 18:59:11 437.568
CANX-2 09 Dec 18:54:14 18:58:27 84° 68° (ENE) 19:02:41 2200.000
LilacSat-2 09 Dec 18:56:42 18:59:39 21° 271° (W) 19:02:36 437.200
ZACube-1 09 Dec 18:58:18 19:02:09 29° 54° (NE) 19:05:57 437.345
GOMX 1 09 Dec 19:02:35 19:06:16 20° 278° (W) 19:10:09 467.674
DELFI C3 09 Dec 19:03:31 19:05:56 16° 45° (NE) 19:08:23 145.870
FUNcube-1 09 Dec 19:03:33 19:07:25 30° 55° (NE) 19:11:13 145.935
Cosmos 2504 09 Dec 19:10:47 19:18:45 42° 83° (E) 19:26:54 435.465 / 435.565
SEEDS 09 Dec 19:10:58 19:15:08 79° 70° (ENE) 19:19:20 437.485
CUTE-I 09 Dec 19:11:34 19:16:00 26° 271° (W) 19:20:28 437.470
SO-50 09 Dec 19:13:02 19:14:49 12° 114° (ESE) 19:16:34 436.795
COMPASS 1 09 Dec 19:13:28 19:17:33 63° 67° (ENE) 19:21:40 437.405
HO-68 09 Dec 19:17:04 19:24:14 71° 252° (WSW) 19:31:29 435.675
SWISSCUBE 09 Dec 19:20:13 19:21:44 11° 336° (NNW) 19:23:15 437.505
AUBIESAT-1 09 Dec 19:21:22 19:24:19 17° 335° (NNW) 19:27:16 437.475
NOAA 15 09 Dec 19:21:35 19:25:29 21° 275° (W) 19:29:25 137.62
BEESAT 09 Dec 19:23:45 19:25:21 12° 336° (NNW) 19:26:56 436.000
CUBEBUG 2 09 Dec 19:28:13 19:32:57 77° 68° (ENE) 19:37:34 437.445
Oscar 11 09 Dec 19:28:30 19:32:32 40° 60° (ENE) 19:36:35 145.826/435.025
M-CUBED/EXP-1 PRIME 09 Dec 19:37:14 19:39:55 15° 341° (NNW) 19:42:35 437.505
CINEMA 3 09 Dec 19:38:32 19:43:20 43° 263° (W) 19:48:08 145.822/145.860
AIST 1 09 Dec 19:40:06 19:44:12 42° 94° (E) 19:48:22
Cubesat XI-IV 09 Dec 19:40:06 19:43:47 18° 277° (W) 19:47:29 437.490
RS-15 09 Dec 19:43:17 19:45:46 11° 280° (W) 19:48:16 29.354- 29.394
STARS 09 Dec 19:46:16 19:49:53 25° 312° (NW) 19:53:28 437.465
DANDE 09 Dec 19:48:53 19:51:13 26° 61° (ENE) 19:53:48 436.750
HUMSAT D 09 Dec 19:50:06 19:53:19 22° 50° (NE) 19:56:30 437.325/437.525
KKS-1 09 Dec 19:52:18 19:55:14 17° 320° (NW) 19:58:10 437.445
MOZHAYETS 4 09 Dec 19:53:02 19:54:54 12° 328° (NNW) 19:56:44
NOAA 18 09 Dec 19:56:36 20:00:36 20° 276° (W) 20:04:36 137.9125
Cosmos 2491 09 Dec 20:01:13 20:08:36 33° 284° (WNW) 20:15:59 435.465 / 435.565
UWE-3 09 Dec 20:01:59 20:06:37 85° 252° (WSW) 20:11:09 435.000/436.395/437.385
CUSAT 1 09 Dec 20:03:16 20:06:36 69° 253° (WSW) 20:10:53 437.405
CUBESAT XI-V 09 Dec 20:05:51 20:09:31 23° 313° (NW) 20:13:12 437.345
ISS 09 Dec 20:07:52 20:08:34 10° 198° (SSW) 20:09:16 145.825
CUTE 1.7 + AOD 2 09 Dec 20:11:54 20:15:39 30° 266° (W) 20:19:25 437.475
AAUSAT CUBESAT 2 09 Dec 20:14:28 20:18:31 55° 258° (WSW) 20:22:37 437.432
PCSat 09 Dec 20:16:05 20:20:43 29° 241° (WSW) 20:25:21 145.827
O/OREOS (USA 219) 09 Dec 20:24:00 20:27:48 25° 355° (N) 20:31:33 437.305
AISAT 09 Dec 20:26:30 20:28:14 12° 31° (NNE) 20:29:58 437.250
STRAND 1 09 Dec 20:30:26 20:35:35 74° 107° (ESE) 20:40:42 437.568
CANX-2 09 Dec 20:31:38 20:34:52 21° 272° (W) 20:38:06 2200.000
DOVE 4 09 Dec 20:33:23 20:34:20 10° 289° (WNW) 20:35:18 437.250
ZACube-1 09 Dec 20:33:43 20:38:12 71° 254° (WSW) 20:42:37 437.345
ESTCUBE 1 09 Dec 20:36:01 20:39:02 18° 42° (NE) 20:42:04 437.505/2401.250
DELFI C3 09 Dec 20:36:13 20:40:05 58° 66° (ENE) 20:44:00 145.870
FUNcube-1 09 Dec 20:38:59 20:43:26 69° 255° (WSW) 20:47:49 145.935
YUBILEINY 09 Dec 20:39:11 20:47:54 68° 293° (WNW) 20:56:43 435.215
CUBEBUG 1 09 Dec 20:40:11 20:42:40 15° 38° (NE) 20:45:10 437.445
SEEDS 09 Dec 20:48:03 20:51:21 22° 271° (W) 20:54:39 437.485
SO-50 09 Dec 20:49:50 20:54:14 39° 135° (SE) 20:58:33 436.795
COMPASS 1 09 Dec 20:49:56 20:53:28 27° 268° (W) 20:57:02 437.405
AUBIESAT-1 09 Dec 20:55:29 20:57:17 12° 358° (N) 20:59:05 437.475
UKube-1 09 Dec 21:01:26 21:02:44 11° 30° (NNE) 21:04:02 .
VELOX 1 09 Dec 21:01:39 21:04:23 16° 39° (NE) 21:07:10 145.980
DX 1 09 Dec 21:01:55 21:03:51 13° 33° (NNE) 21:05:48 434.975-435.025
Cosmos 2504 09 Dec 21:02:54 21:11:39 80° 289° (WNW) 21:20:39 435.465 / 435.565
PRISM 09 Dec 21:03:04 21:06:17 21° 90° (E) 21:09:29 437.425
SPROUT 09 Dec 21:04:10 21:06:08 13° 36° (NE) 21:08:07 437.525
Oscar 11 09 Dec 21:04:32 21:08:41 46° 261° (W) 21:12:52 145.826/435.025
CUBEBUG 2 09 Dec 21:06:05 21:10:02 26° 270° (W) 21:13:57 437.445
HO-68 09 Dec 21:07:39 21:13:18 24° 276° (W) 21:19:01 435.675
M-CUBED/EXP-1 PRIME 09 Dec 21:10:56 21:12:52 12° 3° (N) 21:14:48 437.505
AIST 1 09 Dec 21:17:43 21:21:52 42° 296° (WNW) 21:26:05
UNISAT 6 09 Dec 21:18:01 21:19:33 12° 78° (ENE) 21:21:05 437.425
CINEMA 3 09 Dec 21:20:10 21:21:48 11° 286° (WNW) 21:23:25 145.822/145.860
HUMSAT D 09 Dec 21:24:19 21:28:29 87° 75° (ENE) 21:32:39 437.325/437.525
STARS 09 Dec 21:24:25 21:24:56 10° 334° (NNW) 21:25:26 437.465
DANDE 09 Dec 21:31:32 21:33:56 28° 260° (W) 21:36:39 436.750
UWE-3 09 Dec 21:40:18 21:43:43 20° 273° (W) 21:47:06 435.000/436.395/437.385
TIGRISAT 09 Dec 21:45:43 21:48:40 17° 84° (E) 21:51:33 435.000
CUSAT 1 09 Dec 21:46:36 21:48:07 12° 271° (W) 21:49:46 437.405
ANTELSAT 09 Dec 21:48:13 21:51:20 18° 85° (E) 21:54:25 437.575/2403.000
AAUSAT CUBESAT 2 09 Dec 21:53:17 21:54:57 12° 280° (W) 21:56:37 437.432
AISAT 09 Dec 21:59:38 22:03:34 31° 53° (NE) 22:07:31 437.250
Cosmos 2491 09 Dec 22:00:23 22:02:32 11° 311° (NW) 22:04:41 435.465 / 435.565
50 SAT 09 Dec 22:02:15 22:04:58 21° 53° (NE) 22:07:42 437.505
Cosmos 2499 09 Dec 22:02:58 22:07:29 15° 56° (ENE) 22:11:59 435.465 / 435.565
O/OREOS (USA 219) 09 Dec 22:04:24 22:08:25 30° 20° (NNE) 22:12:25 437.305
STRAND 1 09 Dec 22:09:56 22:14:30 34° 309° (NW) 22:19:04 437.568
ESTCUBE 1 09 Dec 22:10:43 22:15:06 56° 63° (ENE) 22:19:32 437.505/2401.250
TISAT 1 09 Dec 22:11:02 22:12:48 12° 35° (NE) 22:14:34 437.305
DELFI C3 09 Dec 22:11:48 22:15:12 27° 267° (W) 22:18:39 145.870
ZACube-1 09 Dec 22:12:25 22:15:17 16° 276° (W) 22:18:07 437.345
CUBEBUG 1 09 Dec 22:13:52 22:18:03 44° 60° (ENE) 22:22:16 437.445
FUNcube-1 09 Dec 22:17:44 22:20:29 16° 277° (W) 22:23:12 145.935
AUBIESAT-1 09 Dec 22:27:35 22:30:12 15° 20° (NNE) 22:32:49 437.475
SO-50 09 Dec 22:29:44 22:34:28 89° 341° (NNW) 22:39:07 436.795
SWISSCUBE 09 Dec 22:32:06 22:33:34 11° 24° (NNE) 22:35:02 437.505
UKube-1 09 Dec 22:33:53 22:37:38 29° 52° (NE) 22:41:23 .
DX 1 09 Dec 22:35:02 22:38:59 34° 55° (NE) 22:42:59 434.975-435.025
BEESAT 09 Dec 22:35:43 22:37:09 11° 23° (NNE) 22:38:35 436.000
VELOX 1 09 Dec 22:35:44 22:40:01 48° 61° (ENE) 22:44:21 145.980
SPROUT 09 Dec 22:37:06 22:41:05 37° 58° (ENE) 22:45:05 437.525
PRISM 09 Dec 22:37:55 22:42:06 84° 294° (WNW) 22:46:18 437.425
YUBILEINY 09 Dec 22:38:59 22:46:34 31° 322° (NW) 22:54:15 435.215
M-CUBED/EXP-1 PRIME 09 Dec 22:42:52 22:45:54 18° 25° (NNE) 22:48:59 437.505
Oscar 11 09 Dec 22:45:08 22:45:58 10° 283° (WNW) 22:46:47 145.826/435.025
QB50P2 09 Dec 22:46:10 22:47:33 11° 79° (E) 22:48:56 145.880/145.840
POLYITAN 1 09 Dec 22:46:47 22:47:55 11° 79° (ENE) 22:49:02 437.675
UNISAT 6 09 Dec 22:53:03 22:57:25 50° 100° (E) 23:01:39 437.425
DUCHIFAT 1 09 Dec 22:55:59 22:57:21 11° 79° (E) 22:58:43 145.980
QB50P1 09 Dec 22:57:40 22:59:43 13° 81° (E) 23:01:46 145.935-145.965
Cosmos 2504 09 Dec 22:58:31 23:06:30 36° 316° (NW) 23:14:37 435.465 / 435.565
AIST 1 09 Dec 22:58:33 23:00:43 13° 320° (NW) 23:02:54
HUMSAT D 09 Dec 23:01:34 23:04:41 20° 272° (W) 23:07:47 437.325/437.525
ITUPSAT 1 09 Dec 23:04:54 23:07:19 14° 31° (NNE) 23:09:44 437.325
JAS-2 09 Dec 23:08:13 23:12:26 24° 88° (E) 23:16:42 435.910
POPSAT HIP 1 09 Dec 23:19:04 23:22:03 18° 86° (E) 23:25:01 437.405
TIGRISAT 09 Dec 23:21:42 23:26:10 75° 106° (ESE) 23:30:30 435.000
GONETS M04 09 Dec 23:22:54 23:30:00 30° 74° (ENE) 23:37:07
ANTELSAT 09 Dec 23:24:19 23:28:48 81° 106° (ESE) 23:33:10 437.575/2403.000
50 SAT 09 Dec 23:34:24 23:37:56 77° 253° (WSW) 23:41:30 437.505
BUGSAT 1 09 Dec 23:35:08 23:36:34 11° 80° (E) 23:37:59 437.445
AISAT 09 Dec 23:35:21 23:39:48 68° 254° (WSW) 23:44:18 437.250
TISAT 1 09 Dec 23:43:33 23:47:26 35° 57° (ENE) 23:51:20 437.305
O/OREOS (USA 219) 09 Dec 23:44:02 23:48:33 68° 44° (NE) 23:53:01 437.305
ESTCUBE 1 09 Dec 23:48:05 23:52:10 34° 265° (W) 23:56:18 437.505/2401.250
STRAND 1 09 Dec 23:49:44 23:52:28 15° 332° (NNW) 23:55:12 437.568
CUBEBUG 1 09 Dec 23:50:11 23:54:24 44° 261° (W) 23:58:40 437.445
Cosmos 2499 09 Dec 23:50:13 23:58:14 41° 82° (E) 00:06:17 435.465 / 435.565
AUBIESAT-1 09 Dec 23:59:33 00:03:30 30° 42° (NE) 00:07:32 437.475
SWISSCUBE 10 Dec 00:06:07 00:10:00 26° 47° (NE) 00:13:54 437.505
UKube-1 10 Dec 00:09:04 00:13:23 72° 253° (WSW) 00:17:46 .
BEESAT 10 Dec 00:09:42 00:13:35 25° 46° (NE) 00:17:28 436.000
NANOSAT C BR1 10 Dec 00:10:04 00:14:04 38° 97° (E) 00:18:02 145.865
SO-50 10 Dec 00:10:33 00:15:13 67° 1° (N) 00:19:48 436.795
DX 1 10 Dec 00:10:44 00:15:04 58° 257° (WSW) 00:19:26 434.975-435.025
VELOX 1 10 Dec 00:12:26 00:16:38 39° 262° (W) 00:20:52 145.980
SPROUT 10 Dec 00:12:44 00:16:58 51° 259° (W) 00:21:13 437.525
PRISM 10 Dec 00:13:44 00:16:57 22° 312° (NW) 00:20:11 437.425
M-CUBED/EXP-1 PRIME 10 Dec 00:15:13 00:19:25 39° 47° (NE) 00:23:46 437.505
QB50P2 10 Dec 00:20:14 00:24:25 50° 101° (E) 00:28:32 145.880/145.840
POLYITAN 1 10 Dec 00:20:38 00:24:48 48° 100° (E) 00:28:54 437.675
DUCHIFAT 1 10 Dec 00:29:55 00:34:05 50° 101° (E) 00:38:11 145.980
UNISAT 6 10 Dec 00:29:57 00:34:06 38° 302° (WNW) 00:38:09 437.425
QB50P1 10 Dec 00:32:12 00:36:27 58° 103° (ESE) 00:40:38 145.935-145.965
KKS-1 10 Dec 00:37:53 00:39:41 12° 30° (NNE) 00:41:28 437.445
MOZHAYETS 4 10 Dec 00:38:07 00:40:59 17° 39° (NE) 00:43:50
ITUPSAT 1 10 Dec 00:39:43 00:44:02 35° 53° (NE) 00:48:21 437.325
YUBILEINY 10 Dec 00:40:37 00:46:57 21° 354° (N) 00:53:18 435.215
JAS-2 10 Dec 00:53:06 00:58:21 88° 284° (WNW) 01:03:40 435.910
POPSAT HIP 1 10 Dec 00:54:14 00:58:31 83° 107° (ESE) 01:02:47 437.405
Cosmos 2504 10 Dec 00:56:28 01:03:04 22° 346° (NNW) 01:09:41 435.465 / 435.565
AO-85 10 Dec 00:57:42 00:58:10 10° 113° (ESE) 00:58:37 145.980
TIGRISAT 10 Dec 00:58:45 01:02:33 28° 308° (NW) 01:06:16 435.000
ANTELSAT 10 Dec 01:01:26 01:05:10 26° 309° (NW) 01:08:49 437.575/2403.000
BUGSAT 1 10 Dec 01:08:49 01:12:58 51° 101° (E) 01:17:02 437.445
50 SAT 10 Dec 01:10:01 01:11:52 14° 274° (W) 01:13:45 437.505
Oscar 19 10 Dec 01:11:38 01:15:50 24° 88° (E) 01:20:01 437.125/150
AISAT 10 Dec 01:14:22 01:17:08 16° 276° (W) 01:19:55 437.250
GONETS M04 10 Dec 01:17:00 01:25:41 78° 99° (E) 01:34:24
TISAT 1 10 Dec 01:18:48 01:22:59 54° 258° (WSW) 01:27:11 437.305
O/OREOS (USA 219) 10 Dec 01:23:42 01:27:45 33° 246° (WSW) 01:31:46 437.305
CUBEBUG 1 10 Dec 01:31:21 01:31:53 10° 283° (WNW) 01:32:24 437.445
AUBIESAT-1 10 Dec 01:33:03 01:37:31 86° 243° (WSW) 01:42:12 437.475
Cosmos 2499 10 Dec 01:41:57 01:50:50 82° 287° (WNW) 01:59:46 435.465 / 435.565
SWISSCUBE 10 Dec 01:42:32 01:47:20 84° 67° (ENE) 01:52:08 437.505
Gurwin Techsat 1B 10 Dec 01:43:03 01:47:25 25° 88° (E) 01:51:45 435.225
NANOSAT C BR1 10 Dec 01:45:50 01:49:56 46° 299° (WNW) 01:53:58 145.865
BEESAT 10 Dec 01:46:06 01:50:52 83° 69° (ENE) 01:55:41 436.000
UKube-1 10 Dec 01:47:28 01:50:14 16° 275° (W) 01:53:01 .
M-CUBED/EXP-1 PRIME 10 Dec 01:49:19 01:53:44 61° 249° (WSW) 01:58:23 437.505
DX 1 10 Dec 01:50:00 01:52:13 14° 278° (W) 01:54:26 434.975-435.025
SO-50 10 Dec 01:51:16 01:55:56 87° 204° (SSW) 02:00:29 436.795
SPROUT 10 Dec 01:52:22 01:53:56 12° 281° (W) 01:55:31 437.525
QB50P2 10 Dec 01:56:14 02:00:10 37° 302° (WNW) 02:04:04 145.880/145.840
POLYITAN 1 10 Dec 01:56:37 02:00:34 38° 302° (WNW) 02:04:30 437.675
STARS 10 Dec 02:05:34 02:08:51 21° 44° (NE) 02:12:09 437.465
DUCHIFAT 1 10 Dec 02:05:48 02:09:43 36° 302° (WNW) 02:13:35 145.980
UNISAT 6 10 Dec 02:07:35 02:09:49 14° 325° (NW) 02:12:00 437.425
QB50P1 10 Dec 02:08:15 02:12:05 33° 304° (NW) 02:15:52 145.935-145.965
KKS-1 10 Dec 02:11:09 02:15:06 31° 53° (NE) 02:19:05 437.445
MOZHAYETS 4 10 Dec 02:12:53 02:17:18 49° 62° (ENE) 02:21:44
ITUPSAT 1 10 Dec 02:16:55 02:21:41 65° 255° (WSW) 02:26:28 437.325
CUBESAT XI-V 10 Dec 02:28:45 02:32:20 23° 47° (NE) 02:35:57 437.345
POPSAT HIP 1 10 Dec 02:30:26 02:33:57 25° 309° (NW) 02:37:26 437.405
AO-85 10 Dec 02:33:21 02:37:34 35° 134° (SE) 02:41:31 145.980
TIGRISAT 10 Dec 02:36:51 02:38:01 11° 331° (NNW) 02:39:10 435.000
JAS-2 10 Dec 02:38:39 02:43:01 28° 314° (NW) 02:47:25 435.910
ANTELSAT 10 Dec 02:39:46 02:40:36 10° 332° (NNW) 02:41:27 437.575/2403.000
YUBILEINY 10 Dec 02:40:32 02:47:38 26° 27° (NNE) 02:54:44 435.215
BUGSAT 1 10 Dec 02:44:23 02:48:16 36° 303° (WNW) 02:52:05 437.445
Oscar 19 10 Dec 02:50:38 02:55:52 88° 104° (ESE) 03:01:07 437.125/150
Cosmos 2504 10 Dec 02:53:36 03:00:21 23° 18° (NNE) 03:07:00 435.465 / 435.565
TISAT 1 10 Dec 02:57:50 02:59:37 12° 279° (W) 03:01:23 437.305
STRAND 1 10 Dec 03:05:04 03:07:02 12° 21° (NNE) 03:09:00 437.568
AUBIESAT-1 10 Dec 03:09:05 03:12:34 22° 265° (W) 03:16:09 437.475
GONETS M04 10 Dec 03:15:05 03:23:21 45° 307° (NW) 03:31:39
AO-7 10 Dec 03:20:42 03:27:58 31° 89° (E) 03:35:11 29.400- 29.500
SWISSCUBE 10 Dec 03:21:50 03:25:43 24° 270° (W) 03:29:38 437.505
NANOSAT C BR1 10 Dec 03:22:25 03:24:48 15° 321° (NW) 03:27:11 145.865
Gurwin Techsat 1B 10 Dec 03:22:44 03:28:07 88° 109° (ESE) 03:33:27 435.225
BEESAT 10 Dec 03:25:19 03:29:15 25° 270° (W) 03:33:11 436.000
M-CUBED/EXP-1 PRIME 10 Dec 03:26:27 03:29:09 16° 271° (W) 03:31:55 437.505
ITAMSAT 1 10 Dec 03:28:50 03:33:41 38° 96° (E) 03:38:31 435.822/435.867
SO-50 10 Dec 03:31:55 03:36:05 34° 227° (SW) 03:40:10 436.795
QB50P2 10 Dec 03:33:05 03:34:59 13° 324° (NW) 03:36:52 145.880/145.840
POLYITAN 1 10 Dec 03:33:27 03:35:24 13° 324° (NW) 03:37:22 437.675
Cosmos 2499 10 Dec 03:37:14 03:45:20 37° 314° (NW) 03:53:25 435.465 / 435.565
STARS 10 Dec 03:40:10 03:44:36 69° 66° (ENE) 03:49:03 437.465
DUCHIFAT 1 10 Dec 03:42:35 03:44:25 13° 324° (NW) 03:46:14 145.980
QB50P1 10 Dec 03:45:15 03:46:47 12° 326° (NNW) 03:48:19 145.935-145.965
KKS-1 10 Dec 03:46:58 03:51:26 69° 254° (WSW) 03:55:58 437.445
MOZHAYETS 4 10 Dec 03:50:19 03:54:38 40° 263° (W) 03:58:58
ITUPSAT 1 10 Dec 03:57:27 04:00:28 16° 277° (W) 04:03:29 437.325
AIST 1 10 Dec 03:58:26 04:00:38 13° 40° (NE) 04:02:51
CUBESAT XI-V 10 Dec 04:04:34 04:09:10 77° 69° (ENE) 04:13:50 437.345
AO-85 10 Dec 04:13:11 04:17:46 89° 140° (SE) 04:21:59 145.980
BEESAT 3 10 Dec 04:18:13 04:19:47 12° 117° (ESE) 04:21:22 437.485
BUGSAT 1 10 Dec 04:20:51 04:22:38 12° 325° (NW) 04:24:25 437.445
BRITE-PL 10 Dec 04:22:36 04:26:18 18° 81° (E) 04:30:06 437.365/2234.400
JAS-2 10 Dec 04:24:23 04:26:40 13° 340° (NNW) 04:28:57 435.910
Oscar 19 10 Dec 04:30:20 04:34:48 30° 312° (NW) 04:39:16 437.125/150
YUBILEINY 10 Dec 04:38:24 04:46:58 51° 57° (ENE) 04:55:31 435.215
STRAND 1 10 Dec 04:40:37 04:44:45 25° 44° (NE) 04:48:54 437.568
HORYU 2 10 Dec 04:42:05 04:44:19 14° 82° (E) 04:46:32 437.375
Cosmos 2504 10 Dec 04:48:29 04:56:46 39° 48° (NE) 05:04:43 435.465 / 435.565
BEESAT 2 10 Dec 04:56:45 04:58:46 14° 118° (ESE) 05:00:47 435.950
DOVE 4 10 Dec 05:02:34 05:03:05 10° 70° (ENE) 05:03:36 437.250
Gurwin Techsat 1B 10 Dec 05:03:03 05:07:39 30° 312° (NW) 05:12:15 435.225
ITAMSAT 1 10 Dec 05:08:20 05:13:28 60° 298° (WNW) 05:18:34 435.822/435.867
GOMX 1 10 Dec 05:12:57 05:17:07 22° 83° (E) 05:21:16 467.674
AO-7 10 Dec 05:13:36 05:22:03 80° 114° (ESE) 05:30:29 29.400- 29.500
GONETS M04 10 Dec 05:16:12 05:22:57 24° 338° (NNW) 05:29:42
STARS 10 Dec 05:17:32 05:21:22 28° 267° (W) 05:25:13 437.465
Cosmos 2491 10 Dec 05:24:27 05:31:19 27° 72° (ENE) 05:38:12 435.465 / 435.565
KKS-1 10 Dec 05:26:02 05:28:52 16° 276° (W) 05:31:42 437.445
Cosmos 2499 10 Dec 05:34:56 05:41:33 22° 344° (NNW) 05:48:04 435.465 / 435.565
AIST 1 10 Dec 05:35:14 05:39:28 42° 64° (ENE) 05:43:40
CUTE-I 10 Dec 05:36:18 05:39:46 17° 82° (E) 05:43:13 437.470
CUBESAT XI-V 10 Dec 05:43:14 05:47:04 26° 270° (W) 05:50:57 437.345
NOAA 15 10 Dec 05:43:48 05:47:37 20° 85° (E) 05:51:26 137.62
BEESAT 3 10 Dec 05:52:48 05:56:32 42° 138° (SE) 06:00:19 437.485
AO-85 10 Dec 05:54:02 05:58:25 63° 358° (N) 06:02:30 145.980
RS-15 10 Dec 05:54:51 06:03:11 23° 96° (E) 06:11:40 29.354- 29.394
BRITE-PL 10 Dec 06:00:25 06:05:45 63° 102° (ESE) 06:11:21 437.365/2234.400
Cubesat XI-IV 10 Dec 06:03:24 06:07:45 24° 88° (E) 06:12:03 437.490
JAS-2 10 Dec 06:08:41 06:09:44 11° 6° (N) 06:10:49 435.910
Oscar 19 10 Dec 06:10:16 06:12:47 14° 335° (NNW) 06:15:19 437.125/150
HORYU 2 10 Dec 06:17:27 06:21:52 58° 103° (ESE) 06:26:14 437.375
LilacSat-2 10 Dec 06:17:59 06:21:13 26° 92° (E) 06:24:24 437.200
STRAND 1 10 Dec 06:18:14 06:23:22 76° 66° (ENE) 06:28:30 437.568
NOAA 18 10 Dec 06:24:18 06:28:45 24° 87° (E) 06:33:10 137.9125
PRISM 10 Dec 06:28:58 06:31:45 18° 44° (NE) 06:34:32 437.425
BEESAT 2 10 Dec 06:31:54 06:35:45 46° 139° (SE) 06:39:37 435.950
HO-68 10 Dec 06:33:16 06:37:30 16° 75° (ENE) 06:41:42 435.675
YUBILEINY 10 Dec 06:35:35 06:44:20 69° 264° (W) 06:53:05 435.215
DOVE 4 10 Dec 06:37:23 06:42:22 38° 93° (E) 06:47:12 437.250
Cosmos 2504 10 Dec 06:42:24 06:51:23 88° 78° (ENE) 06:59:55 435.465 / 435.565
Gurwin Techsat 1B 10 Dec 06:43:31 06:46:15 14° 336° (NNW) 06:48:58 435.225
ITAMSAT 1 10 Dec 06:48:16 06:52:10 22° 321° (NW) 06:56:03 435.822/435.867
GOMX 1 10 Dec 06:50:35 06:56:03 74° 105° (ESE) 07:01:35 467.674
UNISAT 6 10 Dec 06:52:14 06:54:32 14° 35° (NE) 06:56:48 437.425
AO-7 10 Dec 07:06:37 07:14:32 49° 319° (NW) 07:22:26 29.400- 29.500
AIST 1 10 Dec 07:12:57 07:17:08 43° 266° (W) 07:21:19
CUTE-I 10 Dec 07:15:37 07:20:57 62° 104° (ESE) 07:26:13 437.470
GONETS M04 10 Dec 07:17:22 07:23:42 21° 11° (N) 07:30:01
Cosmos 2491 10 Dec 07:18:09 07:26:51 72° 98° (E) 07:35:33 435.465 / 435.565
TIGRISAT 10 Dec 07:19:42 07:22:43 17° 41° (NE) 07:25:41 435.000
CINEMA 3 10 Dec 07:22:03 07:26:17 28° 90° (E) 07:30:20 145.822/145.860
ANTELSAT 10 Dec 07:22:16 07:25:24 18° 43° (NE) 07:28:29 437.575/2403.000
NOAA 15 10 Dec 07:23:02 07:28:21 72° 107° (ESE) 07:33:39 137.62
BEESAT 3 10 Dec 07:30:05 07:34:03 78° 341° (NNW) 07:38:04 437.485
Cosmos 2499 10 Dec 07:31:56 07:38:32 22° 16° (NNE) 07:44:56 435.465 / 435.565
AO-85 10 Dec 07:34:48 07:39:06 86° 23° (NNE) 07:43:07 145.980
BRITE-PL 10 Dec 07:39:09 07:44:06 41° 303° (WNW) 07:49:19 437.365/2234.400
UWE-3 10 Dec 07:42:40 07:43:44 11° 77° (ENE) 07:44:48 435.000/436.395/437.385
Cubesat XI-IV 10 Dec 07:43:11 07:48:35 86° 107° (ESE) 07:53:57 437.490
CUTE 1.7 + AOD 2 10 Dec 07:45:08 07:48:42 26° 91° (E) 07:52:17 437.475
AAUSAT CUBESAT 2 10 Dec 07:46:30 07:48:38 14° 82° (E) 07:50:48 437.432
JAS-2 10 Dec 07:49:30 07:53:00 18° 32° (NNE) 07:56:23 435.910
LilacSat-2 10 Dec 07:52:03 07:55:49 58° 293° (WNW) 07:59:32 437.200
HORYU 2 10 Dec 07:54:14 07:58:18 35° 305° (NW) 08:02:20 437.375
STRAND 1 10 Dec 07:58:35 08:03:03 30° 268° (W) 08:07:33 437.568
RS-15 10 Dec 08:01:21 08:12:48 54° 125° (SE) 08:24:35 29.354- 29.394
PRISM 10 Dec 08:02:20 08:06:24 62° 65° (ENE) 08:10:30 437.425
AIST 2 10 Dec 08:03:46 08:07:05 23° 126° (SE) 08:10:26 435.215
CANX-2 10 Dec 08:04:01 08:07:59 38° 96° (E) 08:11:57 2200.000
NOAA 18 10 Dec 08:04:39 08:10:16 82° 110° (ESE) 08:15:49 137.9125
NANOSAT C BR1 10 Dec 08:05:57 08:06:40 10° 31° (NNE) 08:07:24 145.865
BEESAT 2 10 Dec 08:09:27 08:13:28 75° 344° (NNW) 08:17:31 435.950
ZACube-1 10 Dec 08:12:21 08:14:12 12° 80° (E) 08:16:02 437.345
DOVE 4 10 Dec 08:15:05 08:20:22 63° 295° (WNW) 08:25:31 437.250
QB50P2 10 Dec 08:15:21 08:17:02 12° 34° (NE) 08:18:43 145.880/145.840
POLYITAN 1 10 Dec 08:15:51 08:17:27 12° 34° (NE) 08:19:03 437.675
FUNcube-1 10 Dec 08:17:12 08:19:07 13° 80° (E) 08:21:02 145.935
SEEDS 10 Dec 08:19:27 08:23:19 35° 95° (E) 08:27:11 437.485
HO-68 10 Dec 08:20:10 08:27:10 49° 99° (E) 08:34:07 435.675
COMPASS 1 10 Dec 08:20:48 08:24:24 27° 92° (E) 08:28:00 437.405
Gurwin Techsat 1B 10 Dec 08:23:20 08:24:16 10° 0° (N) 08:25:11 435.225
DUCHIFAT 1 10 Dec 08:24:29 08:26:07 12° 34° (NE) 08:27:46 145.980
UNISAT 6 10 Dec 08:25:59 08:30:15 38° 57° (ENE) 08:34:27 437.425
QB50P1 10 Dec 08:26:44 08:28:45 13° 37° (NE) 08:30:46 145.935-145.965
ITAMSAT 1 10 Dec 08:28:18 08:30:03 12° 345° (NNW) 08:31:47 435.822/435.867
GOMX 1 10 Dec 08:28:56 08:33:51 36° 306° (NW) 08:38:50 467.674
YUBILEINY 10 Dec 08:32:55 08:39:43 26° 290° (WNW) 08:46:32 435.215
Cosmos 2504 10 Dec 08:36:12 08:44:02 37° 281° (W) 08:51:33 435.465 / 435.565
Oscar 11 10 Dec 08:40:53 08:43:57 19° 86° (E) 08:47:00 145.826/435.025
CUBEBUG 2 10 Dec 08:44:48 08:49:00 38° 96° (E) 08:53:02 437.445
POPSAT HIP 1 10 Dec 08:47:52 08:50:33 16° 41° (NE) 08:53:12 437.405
TIGRISAT 10 Dec 08:54:08 08:58:38 53° 63° (ENE) 09:03:04 435.000
CUTE-I 10 Dec 08:55:55 09:00:53 41° 306° (NW) 09:05:51 437.470
ANTELSAT 10 Dec 08:56:50 09:01:23 57° 64° (ENE) 09:05:51 437.575/2403.000
AO-7 10 Dec 08:58:54 09:05:49 30° 345° (NNW) 09:12:45 29.400- 29.500
CINEMA 3 10 Dec 08:59:00 09:03:55 73° 292° (WNW) 09:08:34 145.822/145.860
BUGSAT 1 10 Dec 09:01:47 09:03:25 12° 34° (NE) 09:05:04 437.445
NOAA 15 10 Dec 09:03:08 09:07:55 36° 309° (NW) 09:12:42 137.62
BEESAT 3 10 Dec 09:08:02 09:11:59 61° 4° (N) 09:15:58 437.485
AO-85 10 Dec 09:15:27 09:19:15 35° 226° (SW) 09:22:51 145.980
Cosmos 2491 10 Dec 09:15:56 09:24:22 48° 304° (NW) 09:32:48 435.465 / 435.565
GONETS M04 10 Dec 09:16:04 09:23:52 34° 42° (NE) 09:31:39
UWE-3 10 Dec 09:17:07 09:21:21 48° 99° (E) 09:25:28 435.000/436.395/437.385
BRITE-PL 10 Dec 09:18:17 09:21:31 17° 325° (NW) 09:24:52 437.365/2234.400
CUSAT 1 10 Dec 09:18:32 09:20:47 26° 97° (E) 09:23:06 437.405
CUTE 1.7 + AOD 2 10 Dec 09:20:45 09:24:57 68° 293° (WNW) 09:29:10 437.475
AAUSAT CUBESAT 2 10 Dec 09:20:50 09:24:59 63° 104° (ESE) 09:29:07 437.432
Cubesat XI-IV 10 Dec 09:23:37 09:28:17 31° 312° (NW) 09:32:55 437.490
Oscar 19 10 Dec 09:25:09 09:27:36 13° 24° (NNE) 09:30:03 437.125/150
Cosmos 2499 10 Dec 09:26:37 09:34:43 38° 46° (NE) 09:42:21 435.465 / 435.565
LilacSat-2 10 Dec 09:27:14 09:29:27 15° 315° (NW) 09:31:40 437.200
JAS-2 10 Dec 09:31:42 09:37:05 44° 56° (NE) 09:42:06 435.910
HORYU 2 10 Dec 09:31:44 09:33:48 13° 327° (NNW) 09:35:53 437.375
DELFI C3 10 Dec 09:37:33 09:40:44 22° 90° (E) 09:43:54 145.870
NANOSAT C BR1 10 Dec 09:37:35 09:41:13 28° 53° (NE) 09:44:52 145.865
PRISM 10 Dec 09:38:29 09:42:02 27° 266° (W) 09:45:38 437.425
CANX-2 10 Dec 09:39:56 09:43:59 46° 298° (WNW) 09:48:01 2200.000
AIST 2 10 Dec 09:40:54 09:45:04 71° 148° (SSE) 09:49:17 435.215
NOAA 18 10 Dec 09:45:37 09:50:35 34° 312° (NW) 09:55:30 137.9125
ZACube-1 10 Dec 09:47:16 09:51:30 56° 102° (ESE) 09:55:38 437.345
BEESAT 2 10 Dec 09:47:34 09:51:35 61° 6° (N) 09:55:36 435.950
QB50P2 10 Dec 09:47:55 09:51:48 34° 56° (ENE) 09:55:41 145.880/145.840
POLYITAN 1 10 Dec 09:48:21 09:52:12 33° 56° (NE) 09:56:04 437.675
FUNcube-1 10 Dec 09:52:08 09:56:21 58° 102° (ESE) 10:00:28 145.935
DOVE 4 10 Dec 09:53:13 09:57:16 23° 317° (NW) 10:01:16 437.250
SEEDS 10 Dec 09:55:09 09:59:12 50° 297° (WNW) 10:03:16 437.485
COMPASS 1 10 Dec 09:56:10 10:00:18 62° 293° (WNW) 10:04:26 437.405
DUCHIFAT 1 10 Dec 09:56:55 10:00:47 34° 56° (NE) 10:04:38 145.980
Gurwin Techsat 1B 10 Dec 09:59:30 10:02:17 15° 25° (NNE) 10:05:04 435.225
QB50P1 10 Dec 09:59:35 10:03:34 38° 58° (ENE) 10:07:34 145.935-145.965
UNISAT 6 10 Dec 10:02:20 10:06:53 55° 258° (WSW) 10:11:23 437.425
ITAMSAT 1 10 Dec 10:06:25 10:07:34 11° 9° (N) 10:08:42 435.822/435.867
GOMX 1 10 Dec 10:07:37 10:10:42 16° 329° (NNW) 10:13:49 467.674
HO-68 10 Dec 10:08:06 10:15:14 65° 303° (WNW) 10:22:21 435.675
RS-15 10 Dec 10:12:31 10:24:43 89° 156° (SSE) 10:37:13 29.354- 29.394
Oscar 11 10 Dec 10:16:25 10:20:47 83° 110° (ESE) 10:25:05 145.826/435.025
POPSAT HIP 1 10 Dec 10:21:23 10:25:33 52° 63° (ENE) 10:29:45 437.405
CUBEBUG 2 10 Dec 10:21:28 10:25:47 48° 298° (WNW) 10:29:57 437.445
Cosmos 2504 10 Dec 10:31:04 10:34:47 13° 307° (NW) 10:38:28 435.465 / 435.565
TIGRISAT 10 Dec 10:31:13 10:35:31 37° 264° (W) 10:39:47 435.000
HUMSAT D 10 Dec 10:32:16 10:36:05 36° 96° (E) 10:39:52 437.325/437.525
BUGSAT 1 10 Dec 10:33:55 10:37:45 34° 56° (ENE) 10:41:36 437.445
ANTELSAT 10 Dec 10:34:06 10:38:21 34° 265° (W) 10:42:32 437.575/2403.000
CUTE-I 10 Dec 10:36:26 10:39:50 17° 329° (NNW) 10:43:12 437.470
CINEMA 3 10 Dec 10:36:36 10:40:24 23° 315° (NW) 10:44:05 145.822/145.860
NOAA 15 10 Dec 10:43:26 10:46:30 16° 332° (NNW) 10:49:34 137.62
BEESAT 3 10 Dec 10:45:50 10:49:50 85° 207° (SSW) 10:53:51 437.485
AO-7 10 Dec 10:49:46 10:56:36 30° 12° (NNE) 11:03:28 29.400- 29.500
DANDE 10 Dec 10:51:25 10:54:40 77° 107° (ESE) 10:57:25 436.750
UWE-3 10 Dec 10:53:45 10:57:49 39° 301° (WNW) 11:01:46 435.000/436.395/437.385
AAUSAT CUBESAT 2 10 Dec 10:56:38 11:00:16 30° 305° (NW) 11:03:53 437.432
CUTE 1.7 + AOD 2 10 Dec 10:57:14 11:00:12 19° 314° (NW) 11:03:10 437.475
CUSAT 1 10 Dec 11:00:29 11:02:43 24° 302° (WNW) 11:05:02 437.405
Oscar 19 10 Dec 11:01:10 11:05:34 29° 47° (NE) 11:09:59 437.125/150
Cubesat XI-IV 10 Dec 11:04:10 11:07:00 15° 336° (NNW) 11:09:50 437.490
PCSat 10 Dec 11:08:11 11:12:36 26° 117° (ESE) 11:17:04 145.827
DELFI C3 10 Dec 11:12:00 11:16:00 74° 291° (WNW) 11:19:59 145.870
NANOSAT C BR1 10 Dec 11:12:23 11:16:40 74° 254° (WSW) 11:20:58 145.865
GONETS M04 10 Dec 11:13:30 11:22:16 76° 70° (ENE) 11:31:02
AISAT 10 Dec 11:15:33 11:17:40 13° 81° (E) 11:19:48 437.250
JAS-2 10 Dec 11:16:31 11:22:14 56° 257° (WSW) 11:27:31 435.910
CANX-2 10 Dec 11:16:42 11:19:00 14° 320° (NW) 11:21:18 2200.000
Cosmos 2491 10 Dec 11:16:53 11:23:48 25° 334° (NNW) 11:30:45 435.465 / 435.565
AIST 2 10 Dec 11:19:30 11:23:41 65° 352° (N) 11:27:54 435.215
Cosmos 2499 10 Dec 11:20:18 11:29:09 85° 75° (ENE) 11:37:23 435.465 / 435.565
QB50P2 10 Dec 11:23:15 11:27:29 56° 258° (WSW) 11:31:44 145.880/145.840
POLYITAN 1 10 Dec 11:23:37 11:27:52 58° 257° (WSW) 11:32:08 437.675
ZACube-1 10 Dec 11:23:49 11:27:41 33° 303° (WNW) 11:31:26 437.345
BEESAT 2 10 Dec 11:25:31 11:29:34 80° 209° (SSW) 11:33:38 435.950
NOAA 18 10 Dec 11:26:36 11:29:56 16° 336° (NNW) 11:33:15 137.9125
CUBEBUG 1 10 Dec 11:27:46 11:31:03 20° 87° (E) 11:34:20 437.445
FUNcube-1 10 Dec 11:28:39 11:32:28 32° 304° (NW) 11:36:12 145.935
ESTCUBE 1 10 Dec 11:28:52 11:32:46 27° 92° (E) 11:36:39 437.505/2401.250
SEEDS 10 Dec 11:31:42 11:34:08 15° 318° (NW) 11:36:33 437.485
DOVE 4 10 Dec 11:31:48 11:33:19 11° 341° (NNW) 11:34:51 437.250
DUCHIFAT 1 10 Dec 11:32:08 11:36:21 56° 257° (WSW) 11:40:34 145.980
COMPASS 1 10 Dec 11:32:26 11:35:12 18° 315° (NW) 11:37:59 437.405
QB50P1 10 Dec 11:35:10 11:39:20 48° 260° (W) 11:43:31 145.935-145.965
Gurwin Techsat 1B 10 Dec 11:36:16 11:40:54 31° 48° (NE) 11:45:33 435.225
ITAMSAT 1 10 Dec 11:41:52 11:45:18 18° 33° (NNE) 11:48:43 435.822/435.867
UNISAT 6 10 Dec 11:42:21 11:44:37 13° 280° (W) 11:46:52 437.425
UKube-1 10 Dec 11:47:13 11:48:07 11° 79° (ENE) 11:49:01 .
SPROUT 10 Dec 11:48:05 11:50:47 16° 84° (E) 11:53:27 437.525
DX 1 10 Dec 11:48:51 11:51:06 14° 82° (E) 11:53:21 434.975-435.025
VELOX 1 10 Dec 11:51:18 11:54:47 22° 88° (E) 11:58:15 145.980
Oscar 11 10 Dec 11:53:00 11:56:33 25° 309° (NW) 12:00:05 145.826/435.025
HO-68 10 Dec 11:55:57 12:02:02 31° 327° (NNW) 12:08:06 435.675
POPSAT HIP 1 10 Dec 11:57:36 12:01:33 34° 264° (W) 12:05:30 437.405
CUBEBUG 2 10 Dec 11:58:51 12:01:32 16° 320° (NW) 12:04:09 437.445
HUMSAT D 10 Dec 12:07:55 12:11:51 46° 297° (WNW) 12:15:45 437.325/437.525
BUGSAT 1 10 Dec 12:08:48 12:13:00 57° 257° (WSW) 12:17:13 437.445
CINEMA 3 10 Dec 12:15:14 12:16:01 10° 338° (NNW) 12:16:47 145.822/145.860
CUTE-I 10 Dec 12:16:43 12:18:03 11° 354° (N) 12:19:24 437.470
50 SAT 10 Dec 12:23:06 12:26:13 27° 95° (E) 12:29:19 437.505
NOAA 15 10 Dec 12:23:24 12:24:26 11° 356° (N) 12:25:28 137.62
BEESAT 3 10 Dec 12:23:39 12:27:09 29° 228° (SW) 12:30:38 437.485
RS-15 10 Dec 12:25:37 12:38:00 81° 6° (N) 12:50:27 29.354- 29.394
UWE-3 10 Dec 12:31:12 12:33:17 13° 324° (NW) 12:35:20 435.000/436.395/437.385
AAUSAT CUBESAT 2 10 Dec 12:33:54 12:34:39 10° 327° (NNW) 12:35:23 437.432
DANDE 10 Dec 12:36:04 12:37:42 14° 307° (NW) 12:39:13 436.750
Oscar 19 10 Dec 12:39:17 12:44:27 90° 359° (N) 12:49:41 437.125/150
AO-7 10 Dec 12:40:02 12:47:48 45° 38° (NE) 12:55:36 29.400- 29.500
Cubesat XI-IV 10 Dec 12:43:57 12:45:10 11° 0° (N) 12:46:22 437.490
DELFI C3 10 Dec 12:47:28 12:50:17 19° 312° (NW) 12:53:06 145.870
PCSat 10 Dec 12:49:57 12:55:23 74° 140° (SE) 13:00:50 145.827
NANOSAT C BR1 10 Dec 12:50:25 12:53:09 16° 275° (W) 12:55:54 145.865
AISAT 10 Dec 12:50:44 12:55:10 55° 102° (ESE) 12:59:34 437.250
TISAT 1 10 Dec 12:52:35 12:54:45 14° 82° (E) 12:56:54 437.305
AIST 2 10 Dec 12:58:17 13:02:30 71° 14° (NNE) 13:06:45 435.215
ZACube-1 10 Dec 13:01:22 13:02:53 12° 326° (NW) 13:04:24 437.345
QB50P2 10 Dec 13:02:16 13:04:14 13° 279° (W) 13:06:13 145.880/145.840
POLYITAN 1 10 Dec 13:02:30 13:04:36 13° 279° (W) 13:06:41 437.675
CUBEBUG 1 10 Dec 13:03:31 13:08:01 85° 108° (ESE) 13:12:28 437.445
BEESAT 2 10 Dec 13:03:33 13:07:00 27° 230° (SW) 13:10:26 435.950
JAS-2 10 Dec 13:05:19 13:08:34 15° 280° (W) 13:11:41 435.910
ESTCUBE 1 10 Dec 13:05:29 13:10:01 71° 292° (WNW) 13:14:32 437.505/2401.250
FUNcube-1 10 Dec 13:06:13 13:07:37 11° 326° (NNW) 13:09:01 145.935
NOAA 18 10 Dec 13:06:33 13:08:42 12° 1° (N) 13:10:52 137.9125
GONETS M04 10 Dec 13:10:40 13:18:40 43° 276° (W) 13:26:41
DUCHIFAT 1 10 Dec 13:11:04 13:12:59 13° 279° (W) 13:14:55 145.980
Cosmos 2499 10 Dec 13:13:50 13:21:35 38° 280° (W) 13:28:54 435.465 / 435.565
QB50P1 10 Dec 13:14:56 13:16:10 11° 281° (W) 13:17:24 145.935-145.965
Gurwin Techsat 1B 10 Dec 13:15:07 13:20:28 86° 250° (WSW) 13:25:51 435.225
Cosmos 2491 10 Dec 13:18:16 13:24:33 21° 7° (N) 13:30:49 435.465 / 435.565
ITAMSAT 1 10 Dec 13:18:50 13:23:45 45° 56° (NE) 13:28:42 435.822/435.867
UKube-1 10 Dec 13:21:05 13:25:17 46° 100° (E) 13:29:29 .
GOMX 1 10 Dec 13:21:40 13:22:51 11° 16° (NNE) 13:24:03 467.674
SPROUT 10 Dec 13:23:11 13:27:31 71° 105° (ESE) 13:31:48 437.525
DX 1 10 Dec 13:23:52 13:28:15 58° 104° (ESE) 13:32:36 434.975-435.025
VELOX 1 10 Dec 13:27:20 13:31:51 88° 289° (WNW) 13:36:21 145.980
SWISSCUBE 10 Dec 13:33:37 13:34:48 11° 77° (ENE) 13:35:58 437.505
BEESAT 10 Dec 13:37:15 13:38:16 11° 76° (ENE) 13:39:17 436.000
